User: anonymous   Login
Location: Unspecified
(0.0000°N, 0.0000°E)
Time: 09:50:58
(UTC+00:00)
Language:

SARAL - Orbit

View from above orbital plane
View from above orbital plane
View from above satellite
View from above satellite

Ground track
Ground track

The orbit data is extracted from the following two-line orbital elements,

1 39086U 13009A   19287.88051110 -.00000006 +00000-0 +13831-4 0  9997
2 39086 098.5420 112.2408 0000230 115.0484 245.0723 14.32012567346717
Epoch (UTC): 14 October 2019 21:07:56
Eccentricity: 0.0000230
inclination: 98.5420°
perigee height: 785 km
apogee height: 785 km
right ascension of ascending node: 112.2408°
argument of perigee: 115.0484°
revolutions per day: 14.32012567
mean anomaly at epoch: 245.0723°
orbit number at epoch: 34671

The dashed part of the orbit path shows where the satellite is in the earth's shadow,  

DLR